Torna al catalogo

FENGYUN 1C DEB

AttivoPO
NORAD 30761·DEBRIS·🇨🇳 China

Lanciato May 10, 1999 da Taiyuan Satellite Launch Center

Loading…

Prossimi Passaggi (prossime 24 ore)

TLE

AggiornatoSource: Space-Track

Epoca: Sep 13, 2026, 18:42 UTC

1 30761U 99025ATX 26256.77921981  .00001150  00000-0  38956-3 0  9998
2 30761  98.9795 199.3026 0081792 225.2609 134.1899 14.36971335 16913

Traccia FENGYUN 1C DEB in tempo reale con AllMySat

Download on the App Store